This is the latest recevied weather packets stored in our database for station/object K1BWE-1. If no packets are shown the sender has not sent any weather packets the latest 10 day(s).
| Time | Temp. | Humidity | Pressure | Rain* | Wind** | Luminosity | Snow |
|---|---|---|---|---|---|---|---|
| 1777903499 | 20.56° C | 36% | 1015.1 hPa | 0 mm | - | 87 W/m² | - |
| 1777903196 | 20.56° C | 36% | 1015.3 hPa | 0 mm | - | 72 W/m² | - |
| 1777902892 | 20.56° C | 36% | 1015.4 hPa | 0 mm | - | 57 W/m² | - |
| 1777902589 | 20.56° C | 36% | 1015.1 hPa | 0 mm | - | 56 W/m² | - |
| 1777902286 | 20.56° C | 37% | 1015.2 hPa | 0 mm | - | 66 W/m² | - |
| 1777901984 | 20.56° C | 36% | 1015.4 hPa | 0 mm | - | 56 W/m² | - |
| 1777901682 | 20.56° C | 35% | 1015.3 hPa | 0 mm | - | 53 W/m² | - |
| 1777901379 | 21.11° C | 35% | 1015.3 hPa | 0 mm | - | 59 W/m² | - |
| 1777901076 | 21.11° C | 34% | 1015.2 hPa | 0 mm | - | 60 W/m² | - |
| 1777900773 | 20.56° C | 34% | 1014.7 hPa | 0 mm | - | 49 W/m² | - |
| 1777900471 | 20.56° C | 35% | 1014.8 hPa | 0 mm | - | 47 W/m² | - |
| 1777900167 | 20.56° C | 34% | 1014.7 hPa | 0 mm | - | 41 W/m² | - |
| 1777899864 | 20° C | 34% | 1014.9 hPa | 0 mm | - | 22 W/m² | - |
| 1777899561 | 20° C | 34% | 1014.8 hPa | 0 mm | - | 16 W/m² | - |
| 1777899258 | 20° C | 34% | 1014.5 hPa | 0 mm | - | 13 W/m² | - |
| 1777898956 | 20° C | 33% | 1014.7 hPa | 0 mm | - | 8 W/m² | - |
| 1777898653 | 20° C | 33% | 1014.5 hPa | 0 mm | - | 5 W/m² | - |
| 1777898350 | 20° C | 33% | 1014.3 hPa | 0 mm | - | 1 W/m² | - |
| 1777898048 | 20° C | 33% | 1014.4 hPa | 0 mm | - | 0 W/m² | - |
| 1777897743 | 20° C | 32% | 1014.5 hPa | 0 mm | - | 0 W/m² | - |
| 1777897440 | 20° C | 33% | 1014.1 hPa | 0 mm | - | 0 W/m² | - |
| 1777897136 | 20° C | 32% | 1014 hPa | 0 mm | - | 0 W/m² | - |
| 1777896832 | 20° C | 32% | 1014.1 hPa | 0 mm | - | 0 W/m² | - |
| 1777896530 | 20° C | 32% | 1014 hPa | 0 mm | - | 0 W/m² | - |
| 1777896227 | 20.56° C | 32% | 1013.9 hPa | 0 mm | - | 0 W/m² | - |
* Rain latest hour (hover to see other rain measurements)
** Current wind speed in m/s (hover to see current wind gust speed)